1997,3,6,14,1740
1997,3,6,15,1780
1997,3,6,16,1900
1997,3,6,17,2150
1997,3,6,18,2470
1997,3,6,19,2720
1997,3,6,20,2920
1997,3,6,21,3090
1997,3,6,22,3140
1997,3,6,23,3010
1997,3,7,0,2790
1997,3,7,1,2670
1997,3,7,2,2440
1997,3,7,3,2460
1997,3,7,4,2540
1997,3,7,5,2650
1997,3,7,6,2890
1997,3,7,7,3030
1997,3,7,8,3010
1997,3,7,9,3020
1997,3,7,10,2850
1997,3,7,11,2640
1997,3,7,12,2250
1997,3,7,13,1920
1997,3,7,14,1660
1997,3,7,15,1600
1997,3,7,16,1610
1997,3,7,17,1830
1997,3,7,18,2200
1997,3,7,19,2570
1997,3,7,20,2890
1997,3,7,21,3100
1997,3,7,22,3170
1997,3,7,23,3120
1997,3,8,0,2900
1997,3,8,1,2670
1997,3,8,2,2440
1997,3,8,3,2340
1997,3,8,4,2350
1997,3,8,5,2530
1997,3,8,6,2740
1997,3,8,7,3040
1997,3,8,8,3320
1997,3,8,9,3400
1997,3,8,10,3350
1997,3,8,11,3120
1997,3,8,12,2760
1997,3,8,13,2350
1997,3,8,14,2010
1997,3,8,15,1740
1997,3,8,16,1660
1997,3,8,17,1780
1997,3,8,18,2060
1997,3,8,19,2450
1997,3,8,20,2820
1997,3,8,21,3090
1997,3,8,22,3250
1997,3,8,23,3210
1997,3,9,0,2980
1997,3,9,1,2700
1997,3,9,2,2360
1997,3,9,3,2110
1997,3,9,4,2050
1997,3,9,5,2100
1997,3,9,6,2340
1997,3,9,7,2720
1997,3,9,8,3030
1997,3,9,9,3280
1997,3,9,10,3360
1997,3,9,11,3270
1997,3,9,12,2980
1997,3,9,13,2560
1997,3,9,14,2090
1997,3,9,15,1740
1997,3,9,16,1540
1997,3,9,17,1510
1997,3,9,18,1810
1997,3,9,19,2150
1997,3,9,20,2560
1997,3,9,21,2880
1997,3,9,22,3220
1997,3,9,23,3180
1997,3,10,0,2990
1997,3,10,1,2740
1997,3,10,2,2310
1997,3,10,3,1990
1997,3,10,4,1870
1997,3,10,5,1830
1997,3,10,6,2150
1997,3,10,7,2420
1997,3,10,8,2920
1997,3,10,9,3300
1997,3,10,10,3520
1997,3,10,11,3600
1997,3,10,12,3420
1997,3,10,13,3110
1997,3,10,14,2630
1997,3,10,15,2160
1997,3,10,16,2040
1997,3,10,17,1790
1997,3,10,18,1910
1997,3,10,19,2180
1997,3,10,20,2560
1997,3,10,21,3060
1997,3,10,22,3230
1997,3,10,23,3320
1997,3,11,0,3280
1997,3,11,1,2990
1997,3,11,2,2570
1997,3,11,3,2250
1997,3,11,4,1890
1997,3,11,5,1750
1997,3,11,6,1720
1997,3,11,7,2110
1997,3,11,8,2570
1997,3,11,9,2940
1997,3,11,10,3380
1997,3,11,11,3650
1997,3,11,12,3620
1997,3,11,13,3460
1997,3,11,14,3030
1997,3,11,15,2660
1997,3,11,16,2270
1997,3,11,17,2060
1997,3,11,18,1980
1997,3,11,19,2190
1997,3,11,20,2580
1997,3,11,21,2940
1997,3,11,22,3280
1997,3,11,23,3470
1997,3,12,0,3450
1997,3,12,1,3270
1997,3,12,2,2830
1997,3,12,3,2380
1997,3,12,4,1960
1997,3,12,5,1710
1997,3,12,6,1620
1997,3,12,7,1760
1997,3,12,8,2150
1997,3,12,9,2610
1997,3,12,10,3040
1997,3,12,11,3380
1997,3,12,12,3520
1997,3,12,13,3460
1997,3,12,14,3170
1997,3,12,15,2760
1997,3,12,16,2370
1997,3,12,17,2130
1997,3,12,18,2010
1997,3,12,19,2050
1997,3,12,20,2280
1997,3,12,21,2680
1997,3,12,22,3040
1997,3,12,23,3320
1997,3,13,0,3340
1997,3,13,1,3250
1997,3,13,2,2950
1997,3,13,3,2480
1997,3,13,4,2100
1997,3,13,5,1730
1997,3,13,6,1600
1997,3,13,7,1600
1997,3,13,8,1800
1997,3,13,9,2190
1997,3,13,10,2610
1997,3,13,11,2990
1997,3,13,12,3300
1997,3,13,13,3330
1997,3,13,14,3250
1997,3,13,15,2990
1997,3,13,16,2710
1997,3,13,17,2400
1997,3,13,18,2270
1997,3,13,19,2220
1997,3,13,20,2350
1997,3,13,21,2620
1997,3,13,22,3010
1997,3,13,23,3260
1997,3,14,0,3380
1997,3,14,1,3350
1997,3,14,2,3100
1997,3,14,3,2790
1997,3,14,4,2390
1997,3,14,5,2020
1997,3,14,6,1740
1997,3,14,7,1640
1997,3,14,8,1620
1997,3,14,9,1770
1997,3,14,10,2230
1997,3,14,11,2610
1997,3,14,12,2910
1997,3,14,13,3100
1997,3,14,14,3120
1997,3,14,15,2910
1997,3,14,16,2790
1997,3,14,17,2530
1997,3,14,18,2370
1997,3,14,19,2340
1997,3,14,20,2270
1997,3,14,21,2530
1997,3,14,22,2760
1997,3,14,23,2950
1997,3,15,0,3190
1997,3,15,1,3190
1997,3,15,2,3140
1997,3,15,3,2880
1997,3,15,4,2560
1997,3,15,5,2120
1997,3,15,6,1880
1997,3,15,7,1620
1997,3,15,8,1600
1997,3,15,9,1650
1997,3,15,10,1900
1997,3,15,11,2180
1997,3,15,12,2480
1997,3,15,13,2690
1997,3,15,14,2740
1997,3,15,15,2780
1997,3,15,16,2640
1997,3,15,17,2520
1997,3,15,18,2400
1997,3,15,19,2310
1997,3,15,20,2370
1997,3,15,21,2430
1997,3,15,22,2560
1997,3,15,23,2740
1997,3,16,0,2940
1997,3,16,1,3040
1997,3,16,2,3000
1997,3,16,3,2880
1997,3,16,4,2640
1997,3,16,5,2350
1997,3,16,6,2020
1997,3,16,7,1860
1997,3,16,8,1730
1997,3,16,9,1730
1997,3,16,10,1780
1997,3,16,11,1950
1997,3,16,12,2200
1997,3,16,13,2390
1997,3,16,14,2540
1997,3,16,15,2610
1997,3,16,16,2620
1997,3,16,17,2620
1997,3,16,18,2530
1997,3,16,19,2490
1997,3,16,20,2440
1997,3,16,21,2500
1997,3,16,22,2640
1997,3,16,23,2800
1997,3,17,0,2840
1997,3,17,1,2910
1997,3,17,2,2950
1997,3,17,3,2900
1997,3,17,4,2820
1997,3,17,5,2640
1997,3,17,6,2440
1997,3,17,7,2260
1997,3,17,8,2100
1997,3,17,9,2070
1997,3,17,10,1950
1997,3,17,11,1970
1997,3,17,12,2020
1997,3,17,13,2200
1997,3,17,14,2390
1997,3,17,15,2450
1997,3,17,16,2560
1997,3,17,17,2600
1997,3,17,18,2670
1997,3,17,19,2720
1997,3,17,20,2710
1997,3,17,21,2720
1997,3,17,22,2650
1997,3,17,23,2720
1997,3,18,0,2830
1997,3,18,1,2860
1997,3,18,2,2900
1997,3,18,3,2910
1997,3,18,4,2900
1997,3,18,5,2790
1997,3,18,6,2690
1997,3,18,7,2570
1997,3,18,8,2460
1997,3,18,9,2300
1997,3,18,10,2220
1997,3,18,11,2140
1997,3,18,12,2110
1997,3,18,13,2150
1997,3,18,14,2180
1997,3,18,15,2320
1997,3,18,16,2460
1997,3,18,17,2580
1997,3,18,18,2720
1997,3,18,19,2790
1997,3,18,20,2830
1997,3,18,21,2840
1997,3,18,22,2820
1997,3,18,23,2790
1997,3,19,0,2720
1997,3,19,1,2720
1997,3,19,2,2680
1997,3,19,3,2750
1997,3,19,4,2790
1997,3,19,5,2840
1997,3,19,6,2840
1997,3,19,7,2750
1997,3,19,8,2670
1997,3,19,9,2600
1997,3,19,10,2420
1997,3,19,11,2320
1997,3,19,12,2170
1997,3,19,13,2080
1997,3,19,14,2090
1997,3,19,15,2170
1997,3,19,16,2300
1997,3,19,17,2490
1997,3,19,18,2680
1997,3,19,19,2820
1997,3,19,20,2980
1997,3,19,21,3000
1997,3,19,22,3010
1997,3,19,23,2930
1997,3,20,0,2800
1997,3,20,1,2700
1997,3,20,2,2650
1997,3,20,3,2680
1997,3,20,4,2730
1997,3,20,5,2850
1997,3,20,6,2920
1997,3,20,7,3030
1997,3,20,8,3040
1997,3,20,9,2900
1997,3,20,10,2790
1997,3,20,11,2520
1997,3,20,12,2330
1997,3,20,13,2120
1997,3,20,14,2090
1997,3,20,15,2060
1997,3,20,16,2210
1997,3,20,17,2370
1997,3,20,18,2650
1997,3,20,19,2890
1997,3,20,20,3030
1997,3,20,21,3150
1997,3,20,22,3130
1997,3,20,23,3030
1997,3,21,0,2830
1997,3,21,1,2670
1997,3,21,2,2530
1997,3,21,3,2500
1997,3,21,4,2500
1997,3,21,5,2690
1997,3,21,6,2870
1997,3,21,7,3020
1997,3,21,8,3130
1997,3,21,9,3110
1997,3,21,10,3010
1997,3,21,11,2840
1997,3,21,12,2540
1997,3,21,13,2310
1997,3,21,14,2110
1997,3,21,15,2020
1997,3,21,16,2070
1997,3,21,17,2240
1997,3,21,18,2510
1997,3,21,19,2810
1997,3,21,20,3040
1997,3,21,21,3160
1997,3,21,22,3180
1997,3,21,23,3060
1997,3,22,0,2870
1997,3,22,1,2640
1997,3,22,2,2430
1997,3,22,3,2350
1997,3,22,4,2370
1997,3,22,5,2490
1997,3,22,6,2720
1997,3,22,7,2950
1997,3,22,8,3170
1997,3,22,9,3280
1997,3,22,10,3200
1997,3,22,11,3040
1997,3,22,12,2780
1997,3,22,13,2440
1997,3,22,14,2190
1997,3,22,15,2090
1997,3,22,16,2030
1997,3,22,17,2120
1997,3,22,18,2460
1997,3,22,19,2770
1997,3,22,20,3060
1997,3,22,21,3220
1997,3,22,22,3310
1997,3,22,23,3210
1997,3,23,0,3000
1997,3,23,1,2720
1997,3,23,2,2410
1997,3,23,3,2220
1997,3,23,4,2170
1997,3,23,5,2290
1997,3,23,6,2510
1997,3,23,7,2820
1997,3,23,8,3160
1997,3,23,9,3320
1997,3,23,10,3350
1997,3,23,11,3260
1997,3,23,12,3030
1997,3,23,13,2720
1997,3,23,14,2360
1997,3,23,15,2110
1997,3,23,16,1980
1997,3,23,17,2100
1997,3,23,18,2280
1997,3,23,19,2580
1997,3,23,20,2910
1997,3,23,21,3210
1997,3,23,22,3300
1997,3,23,23,3210
1997,3,24,0,3040
1997,3,24,1,2720
1997,3,24,2,2410
1997,3,24,3,2130
1997,3,24,4,1980
1997,3,24,5,2010
1997,3,24,6,2200
1997,3,24,7,2540
1997,3,24,8,2910
1997,3,24,9,3210
1997,3,24,10,3300
1997,3,24,11,3300
1997,3,24,12,3140
1997,3,24,13,2730
1997,3,24,14,2380
1997,3,24,15,2050
1997,3,24,16,1890
1997,3,24,17,1850
1997,3,24,18,2000
1997,3,24,19,2320
1997,3,24,20,2680
1997,3,24,21,3020
1997,3,24,22,3160
1997,3,24,23,3190
1997,3,25,0,2990
1997,3,25,1,2670
1997,3,25,2,2320
1997,3,25,3,1990
1997,3,25,4,1760
1997,3,25,5,1760
1997,3,25,6,1910
1997,3,25,7,2210
1997,3,25,8,2620
1997,3,25,9,2950
1997,3,25,10,3220
1997,3,25,11,3280
1997,3,25,12,3190
1997,3,25,13,2930
1997,3,25,14,2590
1997,3,25,15,2220
1997,3,25,16,1930
1997,3,25,17,1860
1997,3,25,18,1910
1997,3,25,19,2190
1997,3,25,20,2510
1997,3,25,21,2890
1997,3,25,22,3130
1997,3,25,23,3170
1997,3,26,0,3020
1997,3,26,1,2780
1997,3,26,2,2440
1997,3,26,3,2030
1997,3,26,4,1710
1997,3,26,5,1580
1997,3,26,6,1670
1997,3,26,7,1920
1997,3,26,8,2330
1997,3,26,9,2770
1997,3,26,10,3120
1997,3,26,11,3290
1997,3,26,12,3270
1997,3,26,13,3090
1997,3,26,14,2740
1997,3,26,15,2390
1997,3,26,16,2130
1997,3,26,17,1960
1997,3,26,18,1980
1997,3,26,19,2150
1997,3,26,20,2480
1997,3,26,21,2820
1997,3,26,22,3120
1997,3,26,23,3270
1997,3,27,0,3220
1997,3,27,1,2960
1997,3,27,2,2610
1997,3,27,3,2210
1997,3,27,4,1910
1997,3,27,5,1660
1997,3,27,6,1660
1997,3,27,7,1840
1997,3,27,8,2210
1997,3,27,9,2670
1997,3,27,10,3070
1997,3,27,11,3330
1997,3,27,12,3430
1997,3,27,13,3330
1997,3,27,14,3110
1997,3,27,15,2750
1997,3,27,16,2420
1997,3,27,17,2220
1997,3,27,18,2170
1997,3,27,19,2280
1997,3,27,20,2520
1997,3,27,21,2860
1997,3,27,22,3160
1997,3,27,23,3330
1997,3,28,0,3340
1997,3,28,1,3180
1997,3,28,2,2920
1997,3,28,3,2460
1997,3,28,4,2110
1997,3,28,5,1800
1997,3,28,6,1660
1997,3,28,7,1770
1997,3,28,8,2050
1997,3,28,9,2440
1997,3,28,10,2850
1997,3,28,11,3180
1997,3,28,12,3390
1997,3,28,13,3420
1997,3,28,14,3290
1997,3,28,15,3010
1997,3,28,16,2750
1997,3,28,17,2510
1997,3,28,18,2410
1997,3,28,19,2440
1997,3,28,20,2690
1997,3,28,21,2950
1997,3,28,22,3250
1997,3,28,23,3470
1997,3,29,0,3510
1997,3,29,1,3430
1997,3,29,2,3170
1997,3,29,3,2840
1997,3,29,4,2410
1997,3,29,5,2090
1997,3,29,6,1900
1997,3,29,7,1790
1997,3,29,8,1930
1997,3,29,9,2340
1997,3,29,10,2660
1997,3,29,11,2980
1997,3,29,12,3260
1997,3,29,13,3340
1997,3,29,14,3390
1997,3,29,15,3160
1997,3,29,16,2890
1997,3,29,17,2680
1997,3,29,18,2590
1997,3,29,19,2520
1997,3,29,20,2680
1997,3,29,21,2810
1997,3,29,22,3110
1997,3,29,23,3200
1997,3,30,0,3380
1997,3,30,1,3300
1997,3,30,2,3130
1997,3,30,3,2790
1997,3,30,4,2450
1997,3,30,5,2090
1997,3,30,6,1860
1997,3,30,7,1700
1997,3,30,8,1690
1997,3,30,9,1940
1997,3,30,10,2210
1997,3,30,11,2580
1997,3,30,12,2850
1997,3,30,13,3070
1997,3,30,14,3110
1997,3,30,15,3090
1997,3,30,16,2860
1997,3,30,17,2780
1997,3,30,18,2670
1997,3,30,19,2550
1997,3,30,20,2550
1997,3,30,21,2730
1997,3,30,22,2900
1997,3,30,23,3050
1997,3,31,0,3220
1997,3,31,1,3240
1997,3,31,2,3140
1997,3,31,3,2910
1997,3,31,4,2650
1997,3,31,5,2350
1997,3,31,6,2050
1997,3,31,7,1840
1997,3,31,8,1770
1997,3,31,9,1850
1997,3,31,10,2050
1997,3,31,11,2270
1997,3,31,12,2540
1997,3,31,13,2750
1997,3,31,14,2930
1997,3,31,15,2980
1997,3,31,16,2970
1997,3,31,17,2870
1997,3,31,18,2780
1997,3,31,19,2690
1997,3,31,20,2710
1997,3,31,21,2730
1997,3,31,22,2820
1997,3,31,23,2970
1997,4,1,0,3030
1997,4,1,1,3100
1997,4,1,2,3110
1997,4,1,3,2920
1997,4,1,4,2780
1997,4,1,5,2570
1997,4,1,6,2290
1997,4,1,7,2060
1997,4,1,8,1940
1997,4,1,9,1900
1997,4,1,10,1910
1997,4,1,11,1990
1997,4,1,12,2190
1997,4,1,13,2370
1997,4,1,14,2570
1997,4,1,15,2710
1997,4,1,16,2730
1997,4,1,17,2750
1997,4,1,18,2750
1997,4,1,19,2700
1997,4,1,20,2670
1997,4,1,21,2690
1997,4,1,22,2660
1997,4,1,23,2710
1997,4,2,0,2770
1997,4,2,1,2810
1997,4,2,2,2800
1997,4,2,3,2800
1997,4,2,4,2740
1997,4,2,5,2610
1997,4,2,6,2440
1997,4,2,7,2280
1997,4,2,8,2130
1997,4,2,9,1990
1997,4,2,10,1910
1997,4,2,11,1870
1997,4,2,12,1900
1997,4,2,13,2040
1997,4,2,14,2200
1997,4,2,15,2340
1997,4,2,16,2500
1997,4,2,17,2650
1997,4,2,18,2720
1997,4,2,19,2800
1997,4,2,20,2800
1997,4,2,21,2740
1997,4,2,22,2700
1997,4,2,23,2640
1997,4,3,0,2600
1997,4,3,1,2650
1997,4,3,2,2650
1997,4,3,3,2680
1997,4,3,4,2710
1997,4,3,5,2730
1997,4,3,6,2680
1997,4,3,7,2600
1997,4,3,8,2460
1997,4,3,9,2270
1997,4,3,10,2090
1997,4,3,11,1960
1997,4,3,12,1850
1997,4,3,13,1840
1997,4,3,14,1880
1997,4,3,15,2080
1997,4,3,16,2240
1997,4,3,17,2460
1997,4,3,18,2630
1997,4,3,19,2720
1997,4,3,20,2800
1997,4,3,21,2780
1997,4,3,22,2690
1997,4,3,23,2560
1997,4,4,0,2420
1997,4,4,1,2340
1997,4,4,2,2350
1997,4,4,3,2390
1997,4,4,4,2460
1997,4,4,5,2590
1997,4,4,6,2690
1997,4,4,7,2710
1997,4,4,8,2650
1997,4,4,9,2540
1997,4,4,10,2350
1997,4,4,11,2110
1997,4,4,12,1900
1997,4,4,13,1770
1997,4,4,14,1690
1997,4,4,15,1760
1997,4,4,16,1910
1997,4,4,17,2180
1997,4,4,18,2450
1997,4,4,19,2660
1997,4,4,20,2780
1997,4,4,21,2850
1997,4,4,22,2730
1997,4,4,23,2560
1997,4,5,0,2360
1997,4,5,1,2170
1997,4,5,2,2050
1997,4,5,3,2080
1997,4,5,4,2210
1997,4,5,5,2400
1997,4,5,6,2610
1997,4,5,7,2820
1997,4,5,8,2930
1997,4,5,9,2870
1997,4,5,10,2710
1997,4,5,11,2500
1997,4,5,12,2220
1997,4,5,13,1920
1997,4,5,14,1750
1997,4,5,15,1700
1997,4,5,16,1840
1997,4,5,17,2070
1997,4,5,18,2350
1997,4,5,19,2650
1997,4,5,20,2860
1997,4,5,21,2960
1997,4,5,22,2930
1997,4,5,23,2720
1997,4,6,0,2470
1997,4,6,1,2140
1997,4,6,2,1970
1997,4,6,3,1890
1997,4,6,4,1930
1997,4,6,5,2170
1997,4,6,6,2460
1997,4,6,7,2780
1997,4,6,8,3030
1997,4,6,9,3150
1997,4,6,10,3110
1997,4,6,11,2910
1997,4,6,12,2610
1997,4,6,13,2270
1997,4,6,14,1960
1997,4,6,15,1810
1997,4,6,16,1820
1997,4,6,17,1970
1997,4,6,18,2260
1997,4,6,19,2610
1997,4,6,20,2910
1997,4,6,21,3100
1997,4,6,22,3080
1997,4,6,23,2930
1997,4,7,0,2640
1997,4,7,1,2270
1997,4,7,2,1930
1997,4,7,3,1720
1997,4,7,4,1710
1997,4,7,5,1890
1997,4,7,6,2230
1997,4,7,7,2640
1997,4,7,8,3000
1997,4,7,9,3330
1997,4,7,10,3400
1997,4,7,11,3290
1997,4,7,12,3020
1997,4,7,13,2700
1997,4,7,14,2330
1997,4,7,15,2050
1997,4,7,16,1910
1997,4,7,17,1960
1997,4,7,18,2140
1997,4,7,19,2530
1997,4,7,20,2880
1997,4,7,21,3120
1997,4,7,22,3200
1997,4,7,23,3060
1997,4,8,0,2770
1997,4,8,1,2370
1997,4,8,2,1960
1997,4,8,3,1590
1997,4,8,4,1440
1997,4,8,5,1510
1997,4,8,6,1870
1997,4,8,7,2360
1997,4,8,8,2800
1997,4,8,9,3220
1997,4,8,10,3510
1997,4,8,11,3520
1997,4,8,12,3370
1997,4,8,13,3090
1997,4,8,14,2750
1997,4,8,15,2360
1997,4,8,16,2140
1997,4,8,17,2150
1997,4,8,18,2310
1997,4,8,19,2590
1997,4,8,20,3000
1997,4,8,21,3290
1997,4,8,22,3480
1997,4,8,23,3430
1997,4,9,0,3220
1997,4,9,1,2830
1997,4,9,2,2400
1997,4,9,3,2010
1997,4,9,4,1730
1997,4,9,5,1650
1997,4,9,6,1810
1997,4,9,7,2220
1997,4,9,8,2640
1997,4,9,9,3140
1997,4,9,10,3540
1997,4,9,11,3680
1997,4,9,12,3730
1997,4,9,13,3480
1997,4,9,14,3170
1997,4,9,15,2810
1997,4,9,16,2500
1997,4,9,17,2390
1997,4,9,18,2410
1997,4,9,19,2670
1997,4,9,20,2970
1997,4,9,21,3320
1997,4,9,22,3540
1997,4,9,23,3530
1997,4,10,0,3430
1997,4,10,1,3060
1997,4,10,2,2660
1997,4,10,3,2130
1997,4,10,4,1720
1997,4,10,5,1530
1997,4,10,6,1540
1997,4,10,7,1740
1997,4,10,8,2200
1997,4,10,9,2710
1997,4,10,10,3120
1997,4,10,11,3420
1997,4,10,12,3590
1997,4,10,13,3530
1997,4,10,14,3260
1997,4,10,15,2910
1997,4,10,16,2590
1997,4,10,17,2460
1997,4,10,18,2340
1997,4,10,19,2480
1997,4,10,20,2800
1997,4,10,21,3110
1997,4,10,22,3370
1997,4,10,23,3490
1997,4,11,0,3470
1997,4,11,1,3240
1997,4,11,2,2820
1997,4,11,3,2370
1997,4,11,4,1910
1997,4,11,5,1610
1997,4,11,6,1480
1997,4,11,7,1520
1997,4,11,8,1870
1997,4,11,9,2280
1997,4,11,10,2760
1997,4,11,11,3080
1997,4,11,12,3300
1997,4,11,13,3320
1997,4,11,14,3230
1997,4,11,15,2980
1997,4,11,16,2700
1997,4,11,17,2500
1997,4,11,18,2350
1997,4,11,19,2370
1997,4,11,20,2640
1997,4,11,21,2890
1997,4,11,22,3220
1997,4,11,23,3360
1997,4,12,0,3420
1997,4,12,1,3330
1997,4,12,2,2980
1997,4,12,3,2630
1997,4,12,4,2230
1997,4,12,5,1880
1997,4,12,6,1640
1997,4,12,7,1620
1997,4,12,8,1770
1997,4,12,9,2060
1997,4,12,10,2480
1997,4,12,11,2850
1997,4,12,12,3110
1997,4,12,13,3240
1997,4,12,14,3270
1997,4,12,15,3130
1997,4,12,16,2960
1997,4,12,17,2750
1997,4,12,18,2620
1997,4,12,19,2580
1997,4,12,20,2700
1997,4,12,21,2920
1997,4,12,22,3140
1997,4,12,23,3390
1997,4,13,0,3500
1997,4,13,1,3480
1997,4,13,2,3310
1997,4,13,3,3020
1997,4,13,4,2670
1997,4,13,5,2290
1997,4,13,6,2050
1997,4,13,7,1930
1997,4,13,8,1950
1997,4,13,9,2110
1997,4,13,10,2420
1997,4,13,11,2700
1997,4,13,12,2960
1997,4,13,13,3160
1997,4,13,14,3230
1997,4,13,15,3180
1997,4,13,16,3030
1997,4,13,17,2890
1997,4,13,18,2780
1997,4,13,19,2680
1997,4,13,20,2710
1997,4,13,21,2790
1997,4,13,22,2960
1997,4,13,23,3160
1997,4,14,0,3270
1997,4,14,1,3310
1997,4,14,2,3230
1997,4,14,3,3060
1997,4,14,4,2800
1997,4,14,5,2480
1997,4,14,6,2210
1997,4,14,7,2060
1997,4,14,8,1980
1997,4,14,9,2030
1997,4,14,10,2190
1997,4,14,11,2410
1997,4,14,12,2660
1997,4,14,13,2880
1997,4,14,14,2970
1997,4,14,15,3020
1997,4,14,16,3010
1997,4,14,17,2930
1997,4,14,18,2880
1997,4,14,19,2780
1997,4,14,20,2750
1997,4,14,21,2830
1997,4,14,22,2910
1997,4,14,23,3030
1997,4,15,0,3170
1997,4,15,1,3200
1997,4,15,2,3190
1997,4,15,3,3140
1997,4,15,4,2990
1997,4,15,5,2800
1997,4,15,6,2600
1997,4,15,7,2470
1997,4,15,8,2340
1997,4,15,9,2310
1997,4,15,10,2350
1997,4,15,11,2480
1997,4,15,12,2620
1997,4,15,13,2800
1997,4,15,14,2970
1997,4,15,15,3030
1997,4,15,16,3110
1997,4,15,17,3130
1997,4,15,18,3110
1997,4,15,19,3070
1997,4,15,20,3040
1997,4,15,21,3010
1997,4,15,22,2990
1997,4,15,23,3000
1997,4,16,0,3070
1997,4,16,1,3110
1997,4,16,2,3160
1997,4,16,3,3120
1997,4,16,4,3050
1997,4,16,5,3000
1997,4,16,6,2890
1997,4,16,7,2720
1997,4,16,8,2610
1997,4,16,9,2480
1997,4,16,10,2460
1997,4,16,11,2400
1997,4,16,12,2460
1997,4,16,13,2560
1997,4,16,14,2680
1997,4,16,15,2820
1997,4,16,16,2920
1997,4,16,17,2990
1997,4,16,18,3060
1997,4,16,19,3100
1997,4,16,20,3080
1997,4,16,21,3010
1997,4,16,22,2990
1997,4,16,23,2940
1997,4,17,0,2920
1997,4,17,1,2930
1997,4,17,2,2950
1997,4,17,3,3000
1997,4,17,4,3030
1997,4,17,5,3030
1997,4,17,6,3030
1997,4,17,7,2960
1997,4,17,8,2910
1997,4,17,9,2780
1997,4,17,10,2680
1997,4,17,11,2580
1997,4,17,12,2520
1997,4,17,13,2540
1997,4,17,14,2640
1997,4,17,15,2720
1997,4,17,16,2910
1997,4,17,17,2990
1997,4,17,18,3140
1997,4,17,19,3220
1997,4,17,20,3220
1997,4,17,21,3170
1997,4,17,22,3050
1997,4,17,23,2960
1997,4,18,0,2810
1997,4,18,1,2770
1997,4,18,2,2770
1997,4,18,3,2810
1997,4,18,4,2850
1997,4,18,5,2970
1997,4,18,6,3060
1997,4,18,7,3080
1997,4,18,8,3060
1997,4,18,9,3020
1997,4,18,10,2870
1997,4,18,11,2710
1997,4,18,12,2590
1997,4,18,13,2490
1997,4,18,14,2470
1997,4,18,15,2550
1997,4,18,16,2690
1997,4,18,17,2890
1997,4,18,18,3050
1997,4,18,19,3210
1997,4,18,20,3310
1997,4,18,21,3270
1997,4,18,22,3190
1997,4,18,23,3000
1997,4,19,0,2840
1997,4,19,1,2660
1997,4,19,2,2580
1997,4,19,3,2620
1997,4,19,4,2690
1997,4,19,5,2840
1997,4,19,6,3030
1997,4,19,7,3190
1997,4,19,8,3220
1997,4,19,9,3200
1997,4,19,10,3090
1997,4,19,11,2900
1997,4,19,12,2670
1997,4,19,13,2500
1997,4,19,14,2420
1997,4,19,15,2380
1997,4,19,16,2560
1997,4,19,17,2740
1997,4,19,18,2970
1997,4,19,19,3160
1997,4,19,20,3300
1997,4,19,21,3340
1997,4,19,22,3220
1997,4,19,23,3040
1997,4,20,0,2780
1997,4,20,1,2540
1997,4,20,2,2400
1997,4,20,3,2360
1997,4,20,4,2440
1997,4,20,5,2650
1997,4,20,6,2920
1997,4,20,7,3200
1997,4,20,8,3320
1997,4,20,9,3410
1997,4,20,10,3320
1997,4,20,11,3160
1997,4,20,12,2910
1997,4,20,13,2670
1997,4,20,14,2490
1997,4,20,15,2410
1997,4,20,16,2480
1997,4,20,17,2660
1997,4,20,18,2910
1997,4,20,19,3160
1997,4,20,20,3360
1997,4,20,21,3340
1997,4,20,22,3210
1997,4,20,23,3000
1997,4,21,0,2740
1997,4,21,1,2470
1997,4,21,2,2200
1997,4,21,3,2070
1997,4,21,4,2140
1997,4,21,5,2270
1997,4,21,6,2670
1997,4,21,7,2950
1997,4,21,8,3240
1997,4,21,9,3350
1997,4,21,10,3420
1997,4,21,11,3310
1997,4,21,12,2960
1997,4,21,13,2670
1997,4,21,14,2380
1997,4,21,15,2160
1997,4,21,16,2220
1997,4,21,17,2320
1997,4,21,18,2570
1997,4,21,19,2850
1997,4,21,20,3090
1997,4,21,21,3210
1997,4,21,22,3180
1997,4,21,23,2970
1997,4,22,0,2710
1997,4,22,1,2330
1997,4,22,2,2010
1997,4,22,3,1780
1997,4,22,4,1740
1997,4,22,5,1880
1997,4,22,6,2200
1997,4,22,7,2560
1997,4,22,8,2910
1997,4,22,9,3240
1997,4,22,10,3320
1997,4,22,11,3310
1997,4,22,12,3090
1997,4,22,13,2800
1997,4,22,14,2490
1997,4,22,15,2290
1997,4,22,16,2160
1997,4,22,17,2220
1997,4,22,18,2500
1997,4,22,19,2790
1997,4,22,20,3090
1997,4,22,21,3270
1997,4,22,22,3360
1997,4,22,23,3240
1997,4,23,0,2920
1997,4,23,1,2600
1997,4,23,2,2200
1997,4,23,3,1880
1997,4,23,4,1720
1997,4,23,5,1810
1997,4,23,6,2100
1997,4,23,7,2470
1997,4,23,8,2840
1997,4,23,9,3250
1997,4,23,10,3470
1997,4,23,11,3530
1997,4,23,12,3340
1997,4,23,13,3110
1997,4,23,14,2770
1997,4,23,15,2440
1997,4,23,16,2270
1997,4,23,17,2270
1997,4,23,18,2410
1997,4,23,19,2690
1997,4,23,20,3000
1997,4,23,21,3200
1997,4,23,22,3380
1997,4,23,23,3260
1997,4,24,0,3010
1997,4,24,1,2650
1997,4,24,2,2190
1997,4,24,3,1850
1997,4,24,4,1560
1997,4,24,5,1550
1997,4,24,6,1710
1997,4,24,7,2060
1997,4,24,8,2460
1997,4,24,9,2940
1997,4,24,10,3280
1997,4,24,11,3400
1997,4,24,12,3400
1997,4,24,13,3210
1997,4,24,14,2860
1997,4,24,15,2570
1997,4,24,16,2300
1997,4,24,17,2230
1997,4,24,18,2270
1997,4,24,19,2530
1997,4,24,20,2820
1997,4,24,21,3110
1997,4,24,22,3280
1997,4,24,23,3230
1997,4,25,0,3090
1997,4,25,1,2760
1997,4,25,2,2350
1997,4,25,3,1940
1997,4,25,4,1570
1997,4,25,5,1420
1997,4,25,6,1500
1997,4,25,7,1760
1997,4,25,8,2180
1997,4,25,9,2640
1997,4,25,10,3060
1997,4,25,11,3290
1997,4,25,12,3380
1997,4,25,13,3250
1997,4,25,14,3030
1997,4,25,15,2730
1997,4,25,16,2470
1997,4,25,17,2320
1997,4,25,18,2340
1997,4,25,19,2470
1997,4,25,20,2710
1997,4,25,21,2980
1997,4,25,22,3190
1997,4,25,23,3270
1997,4,26,0,3180
1997,4,26,1,2850
1997,4,26,2,2490
1997,4,26,3,2080
1997,4,26,4,1690
1997,4,26,5,1420
1997,4,26,6,1370
1997,4,26,7,1500
1997,4,26,8,1860
1997,4,26,9,2270
1997,4,26,10,2720
1997,4,26,11,3040
1997,4,26,12,3200
1997,4,26,13,3230
1997,4,26,14,3050
1997,4,26,15,2840
1997,4,26,16,2570
1997,4,26,17,2360
1997,4,26,18,2300
1997,4,26,19,2360
1997,4,26,20,2570
1997,4,26,21,2820
1997,4,26,22,3040
1997,4,26,23,3180
1997,4,27,0,3150
1997,4,27,1,2960
1997,4,27,2,2650
1997,4,27,3,2270
1997,4,27,4,1850
1997,4,27,5,1510
1997,4,27,6,1350
1997,4,27,7,1400
1997,4,27,8,1610
1997,4,27,9,1970
1997,4,27,10,2410
1997,4,27,11,2790
1997,4,27,12,3060
1997,4,27,13,3190
1997,4,27,14,3110
1997,4,27,15,2970
1997,4,27,16,2750
1997,4,27,17,2600
1997,4,27,18,2440
1997,4,27,19,2440
1997,4,27,20,2610
1997,4,27,21,2780
1997,4,27,22,3010
1997,4,27,23,3220
1997,4,28,0,3220
1997,4,28,1,3140
1997,4,28,2,2940
1997,4,28,3,2600
1997,4,28,4,2240
1997,4,28,5,1870
1997,4,28,6,1670
1997,4,28,7,1580
1997,4,28,8,1700
1997,4,28,9,1920
1997,4,28,10,2260
1997,4,28,11,2610
1997,4,28,12,2910
1997,4,28,13,3140
1997,4,28,14,3160
1997,4,28,15,3080
1997,4,28,16,2950
1997,4,28,17,2760
1997,4,28,18,2630
1997,4,28,19,2670
1997,4,28,20,2720
1997,4,28,21,2830
1997,4,28,22,3000
1997,4,28,23,3180
1997,4,29,0,3260
1997,4,29,1,3230
1997,4,29,2,3160
1997,4,29,3,2940
1997,4,29,4,2630
1997,4,29,5,2320
1997,4,29,6,2090
1997,4,29,7,1890
1997,4,29,8,1820
1997,4,29,9,1940
1997,4,29,10,2150
1997,4,29,11,2380
1997,4,29,12,2700
1997,4,29,13,2870
1997,4,29,14,3020
1997,4,29,15,3060
1997,4,29,16,2990
1997,4,29,17,2930
1997,4,29,18,2790
1997,4,29,19,2690
1997,4,29,20,2600
1997,4,29,21,2720
1997,4,29,22,2760
1997,4,29,23,2900
1997,4,30,0,3020
1997,4,30,1,3070
1997,4,30,2,3090
1997,4,30,3,2920
1997,4,30,4,2760
1997,4,30,5,2490
1997,4,30,6,2240
1997,4,30,7,2050
1997,4,30,8,1870
1997,4,30,9,1860
1997,4,30,10,1910
1997,4,30,11,2070
1997,4,30,12,2270
1997,4,30,13,2470
1997,4,30,14,2690
1997,4,30,15,2780
1997,4,30,16,2860
1997,4,30,17,2840
1997,4,30,18,2780
1997,4,30,19,2710
1997,4,30,20,2650
1997,4,30,21,2600
1997,4,30,22,2600
1997,4,30,23,2680
1997,5,1,0,2700
1997,5,1,1,2790
1997,5,1,2,2830
1997,5,1,3,2850
1997,5,1,4,2800
1997,5,1,5,2700
1997,5,1,6,2540
1997,5,1,7,2340
1997,5,1,8,2180
1997,5,1,9,2070
1997,5,1,10,1990
1997,5,1,11,2000
1997,5,1,12,2090
1997,5,1,13,2260
1997,5,1,14,2440
1997,5,1,15,2610
1997,5,1,16,2700
1997,5,1,17,2800
1997,5,1,18,2790
1997,5,1,19,2770
1997,5,1,20,2700
1997,5,1,21,2600
1997,5,1,22,2490
1997,5,1,23,2460
1997,5,2,0,2430
1997,5,2,1,2500
1997,5,2,2,2600
1997,5,2,3,2690
1997,5,2,4,2760
1997,5,2,5,2770
1997,5,2,6,2770
1997,5,2,7,2720
1997,5,2,8,2600
1997,5,2,9,2420
1997,5,2,10,2360
1997,5,2,11,2170
1997,5,2,12,2130
1997,5,2,13,2120
1997,5,2,14,2350
1997,5,2,15,2550
1997,5,2,16,2700
1997,5,2,17,2850
1997,5,2,18,2960
1997,5,2,19,3010
1997,5,2,20,2980
1997,5,2,21,2900
1997,5,2,22,2740
1997,5,2,23,2600
1997,5,3,0,2480
1997,5,3,1,2410
1997,5,3,2,2450
1997,5,3,3,2570
1997,5,3,4,2730
1997,5,3,5,2850
1997,5,3,6,2950